[Date Prev][Date Next][Thread Prev][Thread Next] - [Date Index][Thread Index][Author Index]
2 Line ISS Keps 12-12
- Subject: [sarex] 2 Line ISS Keps 12-12
- From: "Dave Larsen PhD" <doc@xxxxxxxxxxx>
- Date: Wed, 12 Dec 2001 04:19:28 -0800
ISS
1 25544U 98067A 01346.17983008 .00095114 00000-0 10637-2 0 8291
2 25544 51.6411 273.0537 0005327 78.2717 2.7203 15.61939290174861
----
Via the sarex mailing list at AMSAT.ORG courtesy of AMSAT-NA.
To unsubscribe, send "unsubscribe sarex" to Majordomo@amsat.org
AMSAT Home